sat.trackr.live / text

‹ back to catalog

STARLINK-32479

NORAD 62148 · 2024-224K

PAYLOAD ACTIVE UNKNOWN

§ Identity

Operator
Country
US
Launch date
2024-11-30
Launch site
AFETR
Launch vehicle
Mass (kg)
RCS (m²)

Purposes: comms

External: N2YO · Heavens-Above · Gunter

§ Orbital elements

Epoch: 2026-09-21T08:21:02.511936Z

Period
94.27 min
Inclination
42.9987°
Eccentricity
0.0001516
Mean motion
15.27583000 rev/d
Perigee alt
482.0 km
Apogee alt
484.1 km
Semi-major
6,861.2 km
B*
3.2895e-4
RAAN
133.1130°
Arg perigee
265.8001°
Mean anomaly
94.2677°
Rev number
10,234

§ Raw data

STARLINK-324791 62148U 24224K   26264.34794574  .00008802  00000+0  32895-3 0  99952 62148  42.9987 133.1130 0001516 265.8001  94.2677 15.27583000102345

JSON: /api/v1/satellites/62148 · /tle

For live sub-satellite position, see the globe view (requires WebGL).

§ Visibility from observer

Set your observer location to see the next 7 days of passes ≥ 10°. The values pass through the URL so the page stays shareable.

No JS? Fill the form by hand. The geolocation button needs JavaScript.